Location: Piotrkow Trybunalski
(51.4000°N, 19.6830°E)
Time: 06:21:51
(UTC+01:00)

Vanguard 3 - Visible Passes

Search period start: 30 January 2023 00:00
Search period end: 09 February 2023 00:00
Orbit: 509 x 3252 km, 33.4° (Epoch: 29 January)

Date Brightness Start Highest point End Pass type
(mag) Time Alt. Az. Time Alt. Az. Time Alt. Az.
30 Jan 10.2 18:47:23 10° SSW 18:56:17 25° SE 19:00:28 22° SE visible
30 Jan 10.2 20:56:09 10° SW 21:04:55 36° SSW 21:04:55 36° SSW visible
30 Jan 11.0 23:07:44 10° WSW 23:09:22 14° WSW 23:09:22 14° WSW visible
31 Jan 10.4 17:35:37 10° SSE 17:41:20 15° SE 17:48:29 10° ESE visible
31 Jan 10.1 19:41:53 10° SW 19:52:12 33° SSE 19:53:49 33° SSE visible
31 Jan 10.4 21:52:09 10° WSW 21:58:16 29° SW 21:58:16 29° SW visible
01 Feb 10.2 18:28:30 10° SSW 18:36:40 25° SSE 18:42:42 19° ESE visible
01 Feb 10.0 20:37:17 10° SW 20:47:08 37° S 20:47:08 37° S visible
01 Feb 10.8 22:48:41 10° WSW 22:51:35 18° WSW 22:51:35 18° WSW visible
02 Feb 10.3 17:16:40 10° SSE 17:21:49 15° SE 17:28:19 10° ESE visible
02 Feb 10.0 19:23:06 10° SW 19:32:33 33° SSE 19:35:59 30° SE visible
02 Feb 10.3 21:33:16 10° WSW 21:40:26 32° SW 21:40:26 32° SW visible
03 Feb 10.1 18:09:45 10° SSW 18:17:09 24° SSE 18:24:50 15° ESE visible
03 Feb 10.0 20:18:31 10° SW 20:28:53 37° S 20:29:16 36° S visible
03 Feb 10.7 22:29:47 10° WSW 22:33:43 21° WSW 22:33:43 21° WSW visible
04 Feb 10.3 16:57:52 10° S 17:02:25 15° SE 17:08:08 10° ESE visible
04 Feb 9.9 19:04:25 10° SW 19:13:00 31° SSE 19:18:06 25° SE visible
04 Feb 10.1 21:14:29 10° WSW 21:22:32 33° SSW 21:22:32 33° SSW visible
05 Feb 10.0 17:51:06 10° SSW 17:57:45 23° SSE 18:06:55 11° ESE visible
05 Feb 9.9 19:59:51 10° SW 20:09:17 34° S 20:11:22 33° SSE visible
05 Feb 10.5 22:11:01 10° WSW 22:15:48 23° SW 22:15:48 23° SW visible
06 Feb 9.8 18:45:50 10° SW 18:53:34 30° SSE 19:00:11 20° SE visible
06 Feb 10.1 20:55:50 10° WSW 21:04:37 33° SSW 21:04:37 33° SSW visible
06 Feb 11.0 23:08:25 10° WSW 23:09:04 11° WSW 23:09:04 11° WSW visible
07 Feb 9.9 17:32:32 10° SSW 17:38:27 22° SSE 17:47:00 10° ESE visible
07 Feb 9.9 19:41:17 10° SW 19:49:48 32° S 19:53:27 28° SSE visible
07 Feb 10.5 21:52:25 10° WSW 21:57:53 23° SW 21:57:53 23° SW visible
08 Feb 9.8 18:27:19 10° SW 18:34:16 28° SSE 18:42:18 15° ESE visible
08 Feb 10.1 20:37:17 10° WSW 20:46:14 30° S 20:46:44 30° S visible
08 Feb 10.9 22:50:04 10° WSW 22:51:11 12° WSW 22:51:11 12° WSW visible
